Back to catalog

STARLINK-11112

AliveCommunicationsVLEO
NORAD 60115·PAYLOAD·🇺🇸 United States

Launched Jun 24, 2024 from Vandenberg Space Force Base

Loading…

Next Passes (next 24 hours)

TLE

FreshSource: CelesTrak SupGP

Epoch: Sep 14, 2026, 21:26 UTC

1 60115C 24118C   26257.89354167  .00015025  00000+0  12366-3 0  2574
2 60115  53.1569   8.7576 0001117  73.4386  55.0203 15.69722481    19

Track STARLINK-11112 in real time with AllMySat

Download on the App Store